Location: *
(43.7000°S, 168.7000°W)
Time: 12:11:09
(UTC+00:00)

ASTEX 1 - Pass Details

Date: 07 July 2020
Orbit: 719 x 745 km, 92.7° (Epoch: 09 August)

Event Time Altitude Azimuth Distance (km) Brightness Sun altitude
Rises 17:36:52 0° 2° (N) 3,125 7.0 -12.4°
Reaches altitude 10° 17:39:09 10° 360° (N) 2,212 6.1 -12.0°
Maximum altitude 17:44:02 72° 275° (W) 769 3.3 -11.2°
Drops below altitude 10° 17:48:59 10° 190° (S) 2,244 5.6 -10.3°
Sets 17:51:19 0° 187° (S) 3,175 6.4 -9.9°
